Theta_e
284 285 285 284 285 284 283 283 284 284 285 286 287 286 286 287 287 287 286 287 286 286 285 285 286 286 286 285 285 285 285 285 282 280 282 284 286 285 284 282 282 282 282
283 283 284 284 283 282 282 282 282 283 284 284 285 286 285 285 286 285 285 286 285 284 285 284 285 286 285 284 285 286 286 284 281 278 280 281 283 284 282 280 280 281 280
284 282 282 281 281 281 280 280 281 281 282 282 284 284 284 285 285 285 285 285 285 285 285 285 286 283 285 286 284 286 286 285 283 278 278 280 280 282 278 278 278 278 280
283 282 280 280 280 280 280 280 279 279 280 281 281 283 283 283 284 284 284 285 285 286 285 285 285 284 285 284 285 285 285 285 285 278 277 279 278 281 281 279 277 278 278
281 280 280 281 280 279 279 278 279 278 279 280 280 280 281 282 283 283 284 284 284 284 285 285 285 286 287 287 285 286 285 285 285 282 277 276 278 278 279 279 278 278 278
279 278 280 280 280 279 279 279 278 278 277 278 279 279 278 281 284 286 285 284 285 284 284 284 285 285 286 289 290 290 288 285 285 284 282 280 279 280 280 279 278 277 275
276 277 277 278 278 279 278 278 278 277 277 276 276 277 277 278 283 284 285 283 283 284 284 284 284 284 284 284 287 290 290 291 290 286 284 282 280 280 279 279 279 279 279
276 275 276 277 277 277 277 277 277 277 276 275 275 276 276 277 281 283 284 282 282 282 283 284 284 284 284 284 283 284 285 286 288 288 286 286 284 281 281 281 281 281 278
276 276 276 275 274 274 273 274 274 275 275 274 275 274 273 274 279 280 280 278 279 280 282 283 283 283 286 288 284 282 283 283 287 290 290 290 290 287 284 282 279 276 270
274 274 273 272 270 269 270 270 271 271 272 273 273 273 273 272 276 277 278 275 275 277 279 281 283 284 286 288 285 284 281 282 283 284 285 288 288 286 286 283 281 277 277
270 270 268 268 266 266 266 266 266 266 267 267 268 269 269 270 271 275 276 274 274 275 277 279 281 285 287 288 288 284 283 284 284 283 282 284 283 282 283 283 283 282 279
267 265 264 263 263 264 262 262 263 263 263 263 263 264 267 268 271 273 275 276 277 275 276 278 280 284 285 287 287 288 288 286 283 282 280 281 280 280 281 281 281 282 282
263 261 261 262 262 262 261 261 261 261 261 261 262 262 263 266 267 270 272 274 275 274 277 280 283 284 285 285 286 287 286 285 282 280 279 280 280 280 281 279 280 278 277
260 260 261 261 260 261 262 262 261 261 260 261 260 260 261 262 263 265 266 266 270 272 275 277 281 282 283 283 283 285 285 284 282 280 279 280 280 279 278 278 276 275 273
260 260 260 260 259 259 260 260 261 262 263 263 263 264 264 264 265 269 269 268 268 270 272 273 275 275 276 279 281 282 282 283 281 281 279 277 277 277 277 277 275 274 272
259 259 259 259 259 259 259 260 265 267 269 270 271 270 268 271 272 272 273 273 273 274 271 270 271 273 275 277 279 279 280 280 281 280 278 277 276 276 274 274 274 272 271
258 259 259 259 258 258 259 259 258 262 268 269 270 270 271 271 271 272 272 273 273 274 269 270 270 272 274 276 278 278 277 279 281 278 278 277 276 274 272 271 271 271 270
259 259 258 258 258 259 260 260 260 260 260 261 266 268 270 271 272 272 273 272 268 269 269 270 270 271 274 276 276 276 278 279 278 277 277 275 273 272 270 270 270 270 270
258 258 259 259 260 260 261 261 261 261 261 262 264 267 267 270 271 272 273 269 268 268 269 271 272 273 276 276 277 277 278 275 276 275 273 273 273 271 270 270 270 270 269
257 258 260 259 259 259 260 260 261 262 262 264 264 265 265 265 264 265 268 270 271 271 271 272 276 276 277 276 276 276 275 274 274 273 272 272 272 271 269 268 268 267 267
258 258 258 258 258 259 260 261 261 262 262 262 263 264 270 264 263 264 265 266 266 267 273 273 276 276 276 275 274 274 273 273 272 271 270 270 270 268 268 268 267 267 266
257 256 257 257 258 259 259 260 261 261 261 261 261 262 267 262 262 262 263 263 264 265 266 270 270 269 271 271 272 272 271 269 269 269 268 268 268 267 267 266 266 265 265
256 257 256 256 257 258 258 259 259 260 259 260 260 260 260 260 260 260 261 262 263 263 264 265 266 266 268 269 270 270 268 267 267 267 267 266 266 266 266 265 264 264 264
255 256 256 256 256 257 257 258 259 259 259 259 259 259 260 260 260 260 260 261 261 262 262 263 263 264 265 266 266 267 267 267 267 267 267 266 265 265 265 264 264 264 263
253 253 254 255 255 256 256 257 258 258 259 259 259 259 259 260 260 260 260 260 260 260 260 260 261 262 263 263 264 265 267 266 266 266 266 265 264 264 264 263 263 263 263
252 251 252 254 255 255 256 256 256 257 257 258 258 259 259 259 259 259 260 260 259 260 260 260 260 261 262 263 263 264 265 266 265 265 265 264 263 263 263 262 262 262 262
Wind_Speed
5 5 6 6 7 6 6 5 6 6 9 9 8 7 6 7 6 6 7 7 7 7 7 8 9 7 6 5 5 4 6 5 5 3 3 5 11 11 10 8 7 7 7
4 5 6 5 5 5 6 6 6 6 6 8 8 7 7 6 6 7 7 7 8 8 8 9 11 8 9 7 6 10 8 5 5 6 4 4 7 14 11 11 7 6 6
5 4 5 5 5 5 5 6 7 7 7 6 6 6 7 7 6 6 7 8 9 10 11 10 13 9 12 10 9 11 10 8 4 4 4 3 3 10 7 6 8 5 5
6 6 5 5 6 6 6 6 6 7 8 8 7 7 8 7 7 7 7 9 11 11 11 11 12 12 15 11 12 13 10 10 10 4 4 5 4 8 8 10 7 5 8
5 6 9 10 8 7 7 6 7 7 7 8 8 8 9 9 6 6 8 9 10 12 13 13 13 14 18 17 11 12 12 12 11 10 5 4 7 8 16 10 10 7 6
4 6 8 10 11 12 12 12 10 9 7 7 9 9 10 10 18 20 17 10 12 12 13 13 13 14 17 24 26 26 18 16 17 13 13 13 15 12 13 12 10 8 8
4 6 7 8 10 11 10 11 12 13 12 13 13 12 13 13 22 25 23 12 12 13 14 14 13 11 15 14 21 27 28 28 29 17 19 18 14 16 15 15 16 14 11
6 7 7 9 10 11 11 13 15 14 15 15 16 16 14 14 27 28 26 17 15 16 16 16 16 16 15 14 14 17 20 20 22 18 19 18 13 15 18 19 18 12 4
8 9 9 9 12 13 15 17 17 16 16 15 17 19 19 19 27 28 26 17 17 19 17 17 17 18 21 25 17 18 19 20 21 27 30 24 21 25 22 11 12 12 3
10 10 11 11 12 15 16 17 16 16 19 16 19 19 21 21 31 35 28 14 18 16 18 18 23 23 27 26 19 17 19 21 16 16 16 20 17 16 31 22 16 17 10
10 11 12 11 13 15 17 15 16 17 18 19 21 20 21 21 24 36 37 19 16 16 16 14 14 27 28 30 30 18 22 16 19 14 12 13 12 14 16 17 17 16 15
11 11 12 12 10 11 14 15 15 15 17 17 18 18 15 18 26 29 34 34 31 19 19 15 15 27 28 29 24 31 31 24 11 11 11 14 14 13 13 13 11 10 8
13 13 12 13 12 12 13 15 13 13 13 14 13 15 15 13 14 30 35 35 33 23 17 23 31 31 31 26 31 31 25 14 13 12 14 14 12 11 11 9 8 9 7
13 14 13 13 14 13 11 11 12 12 13 13 14 15 15 14 14 13 13 15 23 23 24 19 19 23 24 22 16 18 14 13 13 13 12 10 8 10 10 10 9 9 9
13 13 13 11 14 14 13 12 12 14 15 15 14 14 15 14 13 24 24 14 13 19 21 14 11 10 12 12 13 13 12 12 12 13 11 10 10 10 11 10 10 10 10
12 11 11 12 12 12 13 13 22 29 32 33 35 29 17 31 37 37 36 35 33 33 19 15 14 13 11 11 11 10 11 13 11 11 11 11 12 11 10 9 9 11 10
12 14 12 13 12 12 13 14 16 16 30 32 33 33 34 33 34 33 33 33 31 28 15 14 13 12 11 9 9 9 10 11 11 10 11 12 11 11 14 11 10 10 9
12 17 12 11 11 12 12 14 14 15 16 15 23 27 29 32 31 30 29 25 12 14 13 11 13 12 13 7 7 8 8 8 8 9 11 11 13 13 13 12 12 12 11
11 11 11 11 11 13 13 13 13 14 15 15 15 19 18 26 29 30 29 11 11 11 13 14 14 13 10 7 9 9 9 8 9 9 10 11 12 13 13 11 10 13 12
10 16 13 10 10 11 11 12 13 13 14 13 13 13 13 14 12 12 10 9 8 9 9 10 8 11 8 8 9 7 7 9 9 9 9 10 10 10 11 11 11 11 10
9 10 13 10 10 10 11 12 12 12 12 12 12 13 28 12 11 10 10 10 10 14 10 8 5 5 5 7 8 8 8 8 8 8 8 9 10 9 9 10 11 10 10
8 9 9 9 9 10 11 11 11 11 12 12 12 12 25 9 9 10 10 10 11 11 10 9 7 5 3 4 6 7 8 8 8 9 9 9 10 10 10 10 10 9 9
7 9 9 8 8 12 10 10 11 11 11 11 11 11 10 10 10 10 11 10 10 10 10 9 8 8 8 8 6 5 8 8 8 9 11 11 10 10 10 11 11 11 9
5 8 8 8 8 9 9 11 10 12 11 10 10 10 10 10 10 11 10 10 10 10 10 9 9 10 8 8 7 7 7 7 7 8 12 11 10 11 10 10 9 10 10
5 6 6 7 7 8 10 10 10 11 10 10 10 10 10 10 10 11 10 10 10 10 12 11 9 12 13 13 11 10 11 12 9 10 8 10 12 13 10 9 10 9 10
5 4 4 5 7 7 8 9 9 9 10 10 10 10 11 11 10 10 10 11 10 10 11 9 12 16 13 11 12 13 14 15 12 13 9 9 10 9 8 10 12 7 8
Wind_Direction
18 1 22 13 13 357 359 360 354 338 340 337 338 332 327 313 298 287 265 251 246 241 233 227 233 217 226 224 209 189 198 162 152 245 168 172 171 177 177 178 185 176 194
36 5 356 8 359 342 346 339 337 326 326 324 328 328 324 318 309 289 280 261 249 249 242 237 236 227 219 205 207 215 212 201 146 163 173 160 191 182 175 177 181 194 199
7 5 339 331 321 321 324 328 329 319 312 311 310 313 316 311 294 289 280 275 260 249 246 239 244 218 227 219 209 216 212 212 198 149 173 159 153 175 156 168 183 189 202
355 348 335 315 299 300 303 295 300 305 307 303 303 299 296 291 293 288 277 275 274 265 253 246 244 230 231 220 220 219 208 205 207 173 184 164 163 172 178 178 184 194 197
338 332 331 323 319 306 282 270 272 278 281 279 284 290 292 289 283 272 265 263 263 267 263 255 250 244 237 228 222 221 210 210 214 209 197 167 178 167 185 179 191 187 205
325 312 312 310 310 311 312 312 308 297 276 281 283 269 273 278 284 286 285 269 261 261 263 259 253 255 249 242 237 230 213 212 217 204 212 215 200 193 184 181 172 181 205
306 290 281 278 281 285 281 285 285 291 293 291 286 276 273 272 276 282 281 273 265 259 258 259 259 250 244 245 244 244 237 225 221 219 217 213 204 193 173 185 193 189 204
284 281 280 285 284 290 290 288 290 289 285 287 288 288 283 281 282 281 281 278 268 260 256 254 252 254 245 236 236 234 241 240 232 227 223 225 215 194 191 189 188 187 62
298 293 299 309 306 306 302 299 298 296 291 288 284 283 283 283 282 283 285 282 273 267 261 255 248 250 246 241 233 235 238 239 242 236 236 229 222 190 187 166 177 162 183
312 318 320 322 314 305 303 303 301 297 292 291 287 283 279 281 285 286 284 278 271 266 261 255 246 243 246 240 234 229 235 235 230 230 226 234 227 210 190 191 177 186 179
321 313 311 311 309 302 298 297 296 294 291 290 287 285 282 279 280 282 283 276 269 268 262 258 252 251 248 241 234 228 231 226 230 219 217 215 206 202 201 201 196 194 187
313 311 310 303 297 295 292 293 291 290 288 287 287 286 284 283 279 281 282 280 277 270 263 257 255 258 255 250 242 237 233 230 219 215 208 209 210 205 200 196 188 204 201
316 310 304 300 296 292 291 290 289 285 282 285 286 288 290 291 292 295 293 288 284 278 273 266 257 254 257 257 253 245 234 223 212 211 212 211 206 200 193 173 176 140 110
307 306 307 304 304 297 289 288 288 287 285 284 284 281 279 277 277 279 279 280 285 289 280 279 262 258 254 254 248 247 226 218 209 212 214 208 190 186 189 173 172 170 148
305 307 306 304 301 299 290 288 284 279 278 280 277 278 283 280 274 274 275 268 260 272 279 280 284 246 245 246 243 225 216 211 207 208 197 190 185 184 185 179 171 175 177
303 305 305 301 298 295 295 290 285 290 293 292 293 291 287 288 293 292 288 284 280 278 276 272 267 269 240 242 238 220 209 209 207 203 191 184 183 180 175 168 170 177 176
300 303 300 299 296 296 298 297 297 294 293 294 294 294 295 296 296 292 287 284 281 275 259 264 267 253 257 241 229 203 205 213 202 188 188 186 173 165 160 166 166 174 176
302 297 293 292 292 294 296 295 294 297 301 298 297 296 295 300 302 297 293 289 279 272 276 261 248 256 261 225 207 209 211 201 198 185 182 168 168 163 166 172 177 178 171
305 297 298 295 295 296 298 298 297 297 297 296 295 294 298 301 301 297 296 284 263 250 249 257 239 232 236 198 207 209 202 181 175 168 169 170 171 166 171 171 172 175 165
307 292 297 304 305 305 305 305 306 308 306 309 316 311 305 300 293 293 289 281 264 259 253 257 267 213 200 198 203 191 169 172 170 171 165 161 163 166 162 155 156 155 159
305 310 308 306 312 309 310 312 311 313 316 318 318 321 328 339 319 325 335 332 327 316 249 236 204 193 196 182 171 170 161 159 156 152 149 148 148 148 148 148 149 150 143
312 300 309 310 312 315 318 314 319 322 324 324 326 327 341 339 339 337 338 338 339 341 358 19 28 20 36 131 143 137 131 133 133 136 137 135 135 139 139 141 141 139 136
303 310 310 310 317 321 322 326 325 330 331 331 332 335 343 347 348 348 346 347 351 358 5 19 27 32 34 42 51 96 124 130 135 135 135 135 138 139 141 141 140 137 138
297 305 314 322 329 329 329 330 330 337 338 340 343 346 349 352 354 355 358 358 2 8 13 18 24 32 42 49 56 68 86 100 116 128 131 135 134 135 134 131 134 133 130
304 301 316 327 333 338 332 335 338 340 345 350 352 356 356 358 4 5 7 10 15 17 23 22 22 30 40 54 63 74 95 98 108 119 120 124 124 126 124 121 127 127 130
304 307 316 327 339 342 337 339 340 345 349 352 354 358 359 1 4 6 9 13 17 19 23 25 28 34 43 49 64 77 90 95 94 98 105 111 110 110 113 120 122 123 129